Bloomington, IN

12:50 PM EDT on June 26, 2017 (GMT -0400)
Monroe County

Weather History for KBMG - May, 2011

Change the Weather History Date:

Saturday, May 21, 2011

  Actual Average Record
Temperature  
Mean Temperature 71 °F 64 °F  
Max Temperature 82 °F 75 °F 87 °F (2014)
Min Temperature 60 °F 53 °F 35 °F (2002)
Degree Days  
Heating Degree Days 0 4  
Month to date heating degree days 142 112  
Since 1 July heating degree days 5243 5226  
Cooling Degree Days 6 3  
Month to date cooling degree days 42 32  
Year to date cooling degree days 57 51  
Growing Degree Days 20 (Base 50)    
Moisture  
Dew Point 62 °F    
Average Humidity 72    
Maximum Humidity 90    
Minimum Humidity 54    
Precipitation  
Precipitation 0.00 in 0.15 in 1.21 in (2014)
Month to date precipitation 4.42 3.62  
Year to date precipitation 26.57 18.27  
Sea Level Pressure  
Sea Level Pressure 29.91 in    
Wind  
Wind Speed 6 mph (SSE)    
Max Wind Speed 17 mph    
Max Gust Speed 23 mph    
Visibility 10 miles    
Events      
T = Trace of Precipitation, MM = Missing Value Source: NWS Daily Summary

Daily Weather History Graph

Daily Weather History Graph

Search for Another Location

Airport or City:

Trip Planner

Search our weather history database for the weather conditions in past years. The results will help you decide how hot, cold, wet, or windy it might be!

Date:

Astronomy

May. 21, 2011 Rise Set
Actual Time 6:28 AM EDT 8:57 PM EDT
Civil Twilight 5:58 AM EDT 9:28 PM EDT
Nautical Twilight 5:20 AM EDT 10:06 PM EDT
Astronomical Twilight 4:37 AM EDT 10:49 PM EDT
Moon 12:19 AM EDT (5/21) 10:25 AM EDT (5/21)
Length of Visible Light 15h 30m
Length of Day
14h 29m
Waning Gibbous, 79% of the Moon is Illuminated
May 21
Waning Gibbous
May 24
Last Quarter
Jun 1
New
Jun 8
First Quarter
Jun 15
Full

Hourly Weather History & Observations

Time (EDT) Temp. Heat Index Dew Point Humidity Pressure Visibility Wind Dir Wind Speed Gust Speed Precip Events Conditions
12:53 AM 64.9 °F - 59.0 °F 81% 29.96 in 10.0 mi Calm Calm - N/A   Clear
1:53 AM 66.0 °F - 59.0 °F 78% 29.93 in 10.0 mi SSE 3.5 mph - N/A   Clear
2:53 AM 63.0 °F - 59.0 °F 87% 29.95 in 10.0 mi Calm Calm - N/A   Clear
3:53 AM 63.0 °F - 59.0 °F 87% 29.95 in 9.0 mi Calm Calm - N/A   Clear
4:53 AM 62.1 °F - 57.9 °F 86% 29.98 in 9.0 mi East 3.5 mph - N/A   Clear
5:53 AM 61.0 °F - 57.9 °F 90% 29.97 in 7.0 mi Calm Calm - N/A   Partly Cloudy
6:53 AM 62.1 °F - 59.0 °F 90% 29.97 in 6.0 mi SE 3.5 mph - N/A   Overcast
7:53 AM 64.0 °F - 60.1 °F 87% 29.96 in 10.0 mi SE 5.8 mph - N/A   Mostly Cloudy
8:53 AM 68.0 °F - 60.1 °F 76% 29.93 in 10.0 mi ESE 6.9 mph - N/A   Clear
9:53 AM 70.0 °F - 61.0 °F 73% 29.92 in 10.0 mi ESE 10.4 mph - N/A   Clear
10:53 AM 75.0 °F - 62.1 °F 64% 29.91 in 10.0 mi SE 11.5 mph 21.9 mph N/A   Clear
11:53 AM 77.0 °F - 62.1 °F 60% 29.90 in 10.0 mi SE 12.7 mph - N/A   Clear
12:53 PM 77.0 °F - 63.0 °F 62% 29.89 in 10.0 mi SE 10.4 mph 16.1 mph N/A   Scattered Clouds
1:53 PM 78.1 °F - 63.0 °F 60% 29.90 in 10.0 mi South 4.6 mph - N/A   Scattered Clouds
2:53 PM 77.0 °F - 64.9 °F 66% 29.90 in 10.0 mi SSW 4.6 mph - N/A   Overcast
3:53 PM 80.1 °F 81.5 °F 63.0 °F 56% 29.90 in 10.0 mi WSW 9.2 mph 18.4 mph N/A   Partly Cloudy
4:53 PM 80.1 °F 81.7 °F 64.0 °F 58% 29.88 in 10.0 mi SW 5.8 mph - N/A   Partly Cloudy
5:53 PM 80.1 °F 81.5 °F 63.0 °F 56% 29.87 in 10.0 mi South 5.8 mph - N/A   Scattered Clouds
6:53 PM 80.1 °F 81.7 °F 64.0 °F 58% 29.86 in 10.0 mi SSW 5.8 mph - N/A   Clear
7:53 PM 78.1 °F - 62.1 °F 58% 29.87 in 10.0 mi South 5.8 mph - N/A   Clear
8:53 PM 72.0 °F - 64.9 °F 78% 29.88 in 10.0 mi SSW 3.5 mph - N/A   Partly Cloudy
9:53 PM 71.1 °F - 64.0 °F 78% 29.88 in 10.0 mi SSE 3.5 mph - N/A   Partly Cloudy
10:53 PM 72.0 °F - 64.9 °F 78% 29.88 in 10.0 mi SSE 6.9 mph - N/A   Mostly Cloudy
11:53 PM 69.1 °F - 66.0 °F 90% 29.88 in 9.0 mi SSE 5.8 mph - N/A   Clear